H1 CPF 2 NER 2021 11 15 9 319 01 glonass128 H2 1106401 9128 37867 2021 11 15 0 0 0 2021 11 18 23 45 0 900 1 1 0 0 0 1 H9 10 0 59533 0.00000 0 1909624.334 -20610829.009 -14830073.959 10 0 59533 900.00000 0 2377146.238 -18682925.450 -17136908.805 10 0 59533 1800.00000 0 3075526.568 -16546757.654 -19109135.629 10 0 59533 2700.00000 0 4017308.043 -14266114.478 -20708298.464 10 0 59533 3600.00000 0 5202748.673 -11907843.282 -21903273.006 10 0 59533 4500.00000 0 6619598.852 -9539185.625 -22670874.670 10 0 59533 5400.00000 0 8243420.764 -7225115.012 -22996305.584 10 0 59533 6300.00000 0 10038436.543 -5025789.052 -22873432.339 10 0 59533 7200.00000 0 11958868.852 -2994223.071 -22304890.044 10 0 59533 8100.00000 0 13950716.666 -1174281.994 -21302011.931 10 0 59533 9000.00000 0 15953890.729 400926.793 -19884587.353 10 0 59533 9900.00000 0 17904618.064 1710194.283 -18080454.459 10 0 59533 10800.00000 0 19738014.060 2744839.377 -15924937.055 10 0 59533 11700.00000 0 21390713.958 3508803.827 -13460138.019 10 0 59533 12600.00000 0 22803453.546 4018211.918 -10734104.402 10 0 59533 13500.00000 0 23923491.540 4300416.739 -7799881.508 10 0 59533 14400.00000 0 24706773.226 4392576.159 -4714475.137 10 0 59533 15300.00000 0 25119746.144 4339820.997 -1537742.761 10 0 59533 16200.00000 0 25140753.527 4193094.442 1668764.706 10 0 59533 17100.00000 0 24760948.952 4006755.016 4842988.239 10 0 59533 18000.00000 0 23984695.692 3836044.522 7923550.635 10 0 59533 18900.00000 0 22829435.582 3734527.549 10850928.900 10 0 59533 19800.00000 0 21325033.933 3751609.686 13568587.665 10 0 59533 20700.00000 0 19512628.413 3930237.865 16024053.089 10 0 59533 21600.00000 0 17443029.775 4304878.471 18169908.223 10 0 59533 22500.00000 0 15174740.271 4899857.156 19964692.343 10 0 59533 23400.00000 0 12771670.880 5728129.436 21373688.476 10 0 59533 24300.00000 0 10300650.360 6790533.549 22369585.441 10 0 59533 25200.00000 0 7828827.369 8075557.535 22933002.674 10 0 59533 26100.00000 0 5421071.239 9559631.626 23052868.337 10 0 59533 27000.00000 0 3137477.056 11207935.814 22726643.437 10 0 59533 27900.00000 0 1031076.668 12975691.519 21960387.080 10 0 59533 28800.00000 0 -854150.652 14809886.309 20768660.411 10 0 59533 29700.00000 0 -2484886.027 16651362.704 19174269.410 10 0 59533 30600.00000 0 -3839630.576 18437186.581 17207849.417 10 0 59533 31500.00000 0 -4909367.949 20103198.429 14907297.154 10 0 59533 32400.00000 0 -5697701.314 21586642.219 12317058.932 10 0 59533 33300.00000 0 -6220457.929 22828762.445 9487286.700 10 0 59533 34200.00000 0 -6504776.689 23777260.036 6472876.715 10 0 59533 35100.00000 0 -6587716.108 24388502.854 3332408.337 10 0 59533 36000.00000 0 -6514440.856 24629395.876 127003.147 10 0 59533 36900.00000 0 -6336063.457 24478829.949 -3080873.070 10 0 59533 37800.00000 0 -6107233.163 23928645.444 -6228641.221 10 0 59533 38700.00000 0 -5883575.504 22984067.700 -9254847.180 10 0 59533 39600.00000 0 -5719092.943 21663593.760 -12100381.306 10 0 59533 40500.00000 0 -5663639.264 19998333.611 -14709653.300 10 0 59533 41400.00000 0 -5760577.309 18030832.821 -17031697.387 10 0 59533 42300.00000 0 -6044721.878 15813426.066 -19021184.241 10 0 59533 43200.00000 0 -6540657.157 13406191.297 -20639318.374 10 0 59533 44100.00000 0 -7261501.701 10874591.509 -21854602.428 10 0 59533 45000.00000 0 -8208174.341 8286904.390 -22643452.836 10 0 59533 45900.00000 0 -9369192.600 5711548.853 -22990654.926 10 0 59533 46800.00000 0 -10721012.062 3214421.361 -22889649.058 10 0 59533 47700.00000 0 -12228891.787 856354.098 -22342643.193 10 0 59533 48600.00000 0 -13848248.366 -1309198.926 -21360550.949 10 0 59533 49500.00000 0 -15526440.523 -3238152.023 -19962757.820 10 0 59533 50400.00000 0 -17204907.995 -4897372.615 -18176721.687 10 0 59533 51300.00000 0 -18821573.806 -6265796.809 -16037416.974 10 0 59533 52200.00000 0 -20313408.322 -7335031.999 -13586634.702 10 0 59533 53100.00000 0 -21619047.070 -8109424.476 -10872153.434 10 0 59533 54000.00000 0 -22681352.579 -8605592.691 -7946798.309 10 0 59533 54900.00000 0 -23449813.373 -8851449.017 -4867407.272 10 0 59533 55800.00000 0 -23882680.453 -8884754.065 -1693725.196 10 0 59533 56700.00000 0 -23948753.059 -8751266.747 1512752.465 10 0 59533 57600.00000 0 -23628740.398 -8502569.691 4689964.212 10 0 59533 58500.00000 0 -22916143.856 -8193662.499 7776472.708 10 0 59533 59400.00000 0 -21817624.190 -7880424.464 10712638.500 10 0 59533 60300.00000 0 -20352839.398 -7617053.150 13441755.772 10 0 59533 61200.00000 0 -18553760.635 -7453585.724 15911129.554 10 0 59533 62100.00000 0 -16463494.711 -7433606.107 18073075.270 10 0 59533 63000.00000 0 -14134661.484 -7592233.054 19885823.086 10 0 59533 63900.00000 0 -11627392.457 -7954472.606 21314311.181 10 0 59533 64800.00000 0 -9007031.819 -8534003.421 22330854.166 10 0 59533 65700.00000 0 -6341633.120 -9332445.894 22915674.851 10 0 59533 66600.00000 0 -3699352.999 -10339146.389 23057289.703 10 0 59533 67500.00000 0 -1145847.571 -11531487.060 22752740.652 10 0 59533 68400.00000 0 1258222.822 -12875710.425 22007668.209 10 0 59533 69300.00000 0 3459478.692 -14328226.770 20836223.336 10 0 59533 70200.00000 0 5413802.692 -15837352.544 19260818.096 10 0 59533 71100.00000 0 7087935.318 -17345409.801 17311717.812 10 0 59533 72000.00000 0 8460618.431 -18791101.214 15026480.361 10 0 59533 72900.00000 0 9523238.287 -20112062.980 12449251.140 10 0 59533 73800.00000 0 10279940.178 -21247489.568 9629925.239 10 0 59533 74700.00000 0 10747208.642 -22140720.152 6623191.429 10 0 59533 75600.00000 0 10952929.791 -22741677.167 3487475.384 10 0 59533 76500.00000 0 10934974.412 -23009052.680 283802.163 10 0 59533 77400.00000 0 10739361.267 -22912148.130 -2925399.572 10 0 59533 78300.00000 0 10418078.520 -22432287.210 -6077527.431 10 0 59533 79200.00000 0 10026656.440 -21563739.485 -9111043.831 10 0 59533 80100.00000 0 9621595.762 -20314113.252 -11966697.034 10 0 59533 81000.00000 0 9257762.761 -18704198.958 -14588698.796 10 0 59533 81900.00000 0 8985863.813 -16767268.276 -16925833.510 10 0 59533 82800.00000 0 8850108.884 -14547857.677 -18932475.211 10 0 59533 83700.00000 0 8886165.153 -12100087.586 -20569491.005 10 0 59533 84600.00000 0 9119489.245 -9485588.290 -21805012.254 10 0 59533 85500.00000 0 9564109.861 -6771120.650 -22615057.795 10 0 59534 0.00000 0 10221912.847 -4025992.652 -22983997.095 10 0 59534 900.00000 0 11082459.258 -1319379.504 -22904844.886 10 0 59534 1800.00000 0 12123342.532 1282336.189 -22379382.054 10 0 59534 2700.00000 0 13311069.837 3718097.812 -21418102.345 10 0 59534 3600.00000 0 14602428.273 5934472.624 -20039986.789 10 0 59534 4500.00000 0 15946277.217 7887620.842 -18272112.067 10 0 59534 5400.00000 0 17285689.943 9544855.348 -16149101.973 10 0 59534 6300.00000 0 18560353.263 10885729.431 -13712434.110 10 0 59534 7200.00000 0 19709123.456 11902610.043 -11009616.674 10 0 59534 8100.00000 0 20672630.675 12600715.899 -8093252.457 10 0 59534 9000.00000 0 21395822.509 12997622.249 -5020009.085 10 0 59534 9900.00000 0 21830340.437 13122256.170 -1849516.144 10 0 59534 10800.00000 0 21936630.332 13013427.387 1356789.214 10 0 59534 11700.00000 0 21685699.722 12717958.514 4536845.923 10 0 59534 12600.00000 0 21060449.458 12288494.751 7629159.406 10 0 59534 13500.00000 0 20056525.293 11781085.853 10573976.555 10 0 59534 14400.00000 0 18682654.761 11252642.026 13314423.761 10 0 59534 15300.00000 0 16960455.920 10758370.036 15797587.393 10 0 59534 16200.00000 0 14923725.990 10349296.167 17975517.512 10 0 59534 17100.00000 0 12617238.944 10069978.723 19806137.211 10 0 59534 18000.00000 0 10095100.933 9956504.716 21254041.632 10 0 59534 18900.00000 0 7418730.048 10034853.716 22291172.734 10 0 59534 19800.00000 0 4654541.988 10319696.793 22897357.967 10 0 59534 20700.00000 0 1871435.098 10813680.914 23060703.038 10 0 59534 21600.00000 0 -861823.660 11507229.488 22777831.347 10 0 59534 22500.00000 0 -3479205.989 12378868.864 22053964.937 10 0 59534 23400.00000 0 -5919916.784 13396069.159 20902844.241 10 0 59534 24300.00000 0 -8130674.016 14516566.682 19346486.593 10 0 59534 25200.00000 0 -10067680.257 15690115.156 17414786.032 10 0 59534 26100.00000 0 -11698203.986 16860594.792 15144959.905 10 0 59534 27000.00000 0 -13001704.412 17968392.756 12580850.680 10 0 59534 27900.00000 0 -13970451.945 18952956.412 9772094.299 10 0 59534 28800.00000 0 -14609617.064 19755412.460 6773169.575 10 0 59534 29700.00000 0 -14936822.611 20321141.296 3642345.883 10 0 59534 30600.00000 0 -14981177.242 20602196.792 440549.055 10 0 59534 31500.00000 0 -14781830.006 20559467.326 -2769832.122 10 0 59534 32400.00000 0 -14386106.975 20164484.277 -5926174.738 10 0 59534 33300.00000 0 -13847309.204 19400798.695 -8966860.506 10 0 59534 34200.00000 0 -13222266.337 18264865.220 -11832498.278 10 0 59534 35100.00000 0 -12568751.228 16766393.395 -14467104.418 10 0 59534 36000.00000 0 -11942867.147 14928149.525 -16819215.872 10 0 59534 36900.00000 0 -11396520.535 12785216.127 -18842912.180 10 0 59534 37800.00000 0 -10975088.470 10383739.507 -20498724.935 10 0 59534 38700.00000 0 -10715381.442 7779218.104 -21754415.820 10 0 59534 39600.00000 0 -10643988.918 5034404.089 -22585607.379 10 0 59534 40500.00000 0 -10776078.342 2216907.015 -22976254.227 10 0 59534 41400.00000 0 -11114698.317 -603399.192 -22918945.962 10 0 59534 42300.00000 0 -11650614.736 -3357056.576 -22415036.742 10 0 59534 43200.00000 0 -12362685.621 -5977678.412 -21474600.287 10 0 59534 44100.00000 0 -13218757.269 -8404468.650 -20116212.584 10 0 59534 45000.00000 0 -14177042.184 -10584500.991 -18366568.121 10 0 59534 45900.00000 0 -15187918.935 -12474663.993 -16259938.690 10 0 59534 46800.00000 0 -16196076.537 -14043193.035 -13837486.774 10 0 59534 47700.00000 0 -17142911.724 -15270727.776 -11146448.238 10 0 59534 48600.00000 0 -17969077.360 -16150853.943 -8239201.357 10 0 59534 49500.00000 0 -18617074.353 -16690110.045 -5172241.131 10 0 59534 50400.00000 0 -19033778.139 -16907461.880 -2005079.433 10 0 59534 51300.00000 0 -19172794.094 -16833269.851 1200907.396 10 0 59534 52200.00000 0 -18996543.814 -16507794.885 4383661.318 10 0 59534 53100.00000 0 -18477995.779 -15979307.500 7481633.175 10 0 59534 54000.00000 0 -17601969.018 -15301880.547 10434958.901 10 0 59534 54900.00000 0 -16365956.107 -14532958.677 13186599.804 10 0 59534 55800.00000 0 -14780431.799 -13730806.235 15683426.231 10 0 59534 56700.00000 0 -12868634.540 -12951939.749 17877225.391 10 0 59534 57600.00000 0 -10665829.552 -12248651.404 19725615.608 10 0 59534 58500.00000 0 -8218083.101 -11666725.811 21192850.991 10 0 59534 59400.00000 0 -5580597.223 -11243444.320 22250502.521 10 0 59534 60300.00000 0 -2815671.725 -11005959.319 22878003.576 10 0 59534 61200.00000 0 9624.521 -10970105.971 23063050.005 10 0 59534 62100.00000 0 2825979.324 -11139701.159 22801847.199 10 0 59534 63000.00000 0 5564458.073 -11506359.720 22099198.867 10 0 59534 63900.00000 0 8159113.505 -12049837.062 20968434.713 10 0 59534 64800.00000 0 10549478.137 -12738885.754 19431176.790 10 0 59534 65700.00000 0 12682837.184 -13532592.459 17516946.965 10 0 59534 66600.00000 0 14516187.967 -14382141.408 15262620.835 10 0 59534 67500.00000 0 16017804.101 -15232932.471 12711736.344 10 0 59534 68400.00000 0 17168338.414 -16026966.333 9913668.324 10 0 59534 69300.00000 0 17961417.223 -16705397.207 6922683.301 10 0 59534 70200.00000 0 18403699.648 -17211145.511 3796891.687 10 0 59534 71100.00000 0 18514398.119 -17491459.352 597117.165 10 0 59534 72000.00000 0 18324279.127 -17500314.909 -2614294.466 10 0 59534 72900.00000 0 17874185.774 -17200551.906 -5774702.968 10 0 59534 73800.00000 0 17213144.561 -16565651.063 -8822412.525 10 0 59534 74700.00000 0 16396137.091 -15581075.438 -11697895.652 10 0 59534 75600.00000 0 15481632.296 -14245116.153 -14344976.227 10 0 59534 76500.00000 0 14528985.404 -12569204.339 -16711946.418 10 0 59534 77400.00000 0 13595815.763 -10577674.315 -18752593.680 10 0 59534 78300.00000 0 12735476.573 -8306986.771 -20427116.179 10 0 59534 79200.00000 0 11994725.379 -5804444.145 -21702907.637 10 0 59534 80100.00000 0 11411695.230 -3126452.316 -22555195.618 10 0 59534 81000.00000 0 11014252.984 -336402.091 -22967520.744 10 0 59534 81900.00000 0 10818814.198 2497739.991 -22932047.971 10 0 59534 82800.00000 0 10829663.998 5306029.817 -22449704.677 10 0 59534 83700.00000 0 11038811.340 8019223.639 -21530144.129 10 0 59534 84600.00000 0 11426381.056 10571423.745 -20191536.460 10 0 59534 85500.00000 0 11961525.132 12902581.613 -18460192.805 10 0 59535 0.00000 0 12603812.552 14960754.931 -16370031.667 10 0 59535 900.00000 0 13305037.435 16704026.859 -13961898.224 10 0 59535 1800.00000 0 14011366.540 18102006.827 -11282754.084 10 0 59535 2700.00000 0 14665735.424 19136856.523 -8384750.637 10 0 59535 3600.00000 0 15210390.524 19803798.318 -5324207.639 10 0 59535 4500.00000 0 15589470.052 20111089.027 -2160516.463 10 0 59535 5400.00000 0 15751515.147 20079462.934 1045010.266 10 0 59535 6300.00000 0 15651806.209 19741070.017 4230320.466 10 0 59535 7200.00000 0 15254427.072 19137955.992 7333813.269 10 0 59535 8100.00000 0 14533971.376 18320149.380 10295516.396 10 0 59535 9000.00000 0 13476820.510 17343436.502 13058228.626 10 0 59535 9900.00000 0 12081940.374 16266917.677 15568606.628 10 0 59535 10800.00000 0 10361163.924 15150446.335 17778176.863 10 0 59535 11700.00000 0 8338947.433 14052057.087 19644254.748 10 0 59535 12600.00000 0 6051609.782 13025488.903 21130754.978 10 0 59535 13500.00000 0 3546084.852 12117905.345 22208878.904 10 0 59535 14400.00000 0 878236.708 11367905.725 22857666.892 10 0 59535 15300.00000 0 -1889195.070 10803909.169 23064405.667 10 0 59535 16200.00000 0 -4688937.584 10442978.567 22824882.964 10 0 59535 17100.00000 0 -7451720.222 10290133.592 22143484.104 10 0 59535 18000.00000 0 -10108901.197 10338182.281 21033127.557 10 0 59535 18900.00000 0 -12595078.395 10568079.528 19515039.126 10 0 59535 19800.00000 0 -14850577.875 10949799.256 17618367.086 10 0 59535 20700.00000 0 -16823717.375 11443685.713 15379643.447 10 0 59535 21600.00000 0 -18472750.812 12002229.072 12842099.455 10 0 59535 22500.00000 0 -19767412.073 12572192.358 10054846.408 10 0 59535 23400.00000 0 -20689992.338 13097001.168 7071935.946 10 0 59535 24300.00000 0 -21235904.350 13519295.779 3951316.835 10 0 59535 25200.00000 0 -21413708.273 13783537.349 753707.888 10 0 59535 26100.00000 0 -21244596.596 13838556.716 -2458590.795 10 0 59535 27000.00000 0 -20761358.675 13639935.878 -5622924.335 10 0 59535 27900.00000 0 -20006868.137 13152118.742 -8677522.027 10 0 59535 28800.00000 0 -19032157.141 12350158.885 -11562722.618 10 0 59535 29700.00000 0 -17894159.761 11221027.420 -14222159.951 10 0 59535 30600.00000 0 -16653221.265 9764422.947 -16603883.701 10 0 59535 31500.00000 0 -15370480.386 7993047.146 -18661391.277 10 0 59535 32400.00000 0 -14105237.176 5932332.731 -20354549.167 10 0 59535 33300.00000 0 -12912419.480 3619634.231 -21650384.552 10 0 59535 34200.00000 0 -11840256.488 1102915.344 -22523731.063 10 0 59535 35100.00000 0 -10928258.489 -1561011.794 -22957716.006 10 0 59535 36000.00000 0 -10205588.273 -4308621.028 -22944079.972 10 0 59535 36900.00000 0 -9689892.339 -7072090.074 -22483323.435 10 0 59535 37800.00000 0 -9386639.988 -9781900.005 -21584678.702 10 0 59535 38700.00000 0 -9288996.283 -12369507.270 -20265909.168 10 0 59535 39600.00000 0 -9378232.030 -14769976.457 -18552941.372 10 0 59535 40500.00000 0 -9624650.979 -16924464.392 -16479338.580 10 0 59535 41400.00000 0 -9988992.676 -18782452.923 -14085627.631 10 0 59535 42300.00000 0 -10424249.511 -20303638.733 -11418493.547 10 0 59535 43200.00000 0 -10877819.401 -21459403.450 -8529858.738 10 0 59535 44100.00000 0 -11293901.890 -22233805.176 -5475865.556 10 0 59535 45000.00000 0 -11616035.762 -22624052.731 -2315782.677 10 0 59535 45900.00000 0 -11789670.893 -22640445.606 889143.209 10 0 59535 46800.00000 0 -11764666.210 -22305784.788 4076868.218 10 0 59535 47700.00000 0 -11497609.216 -21654281.329 7185742.051 10 0 59535 48600.00000 0 -10953860.461 -20730010.093 10155686.522 10 0 59535 49500.00000 0 -10109237.963 -19584974.404 12929340.204 10 0 59535 50400.00000 0 -8951271.820 -18276862.928 15453148.394 10 0 59535 51300.00000 0 -7479976.931 -16866592.191 17678379.033 10 0 59535 52200.00000 0 -5708111.463 -15415736.480 19562046.722 10 0 59535 53100.00000 0 -3660909.730 -13983951.045 21067728.625 10 0 59535 54000.00000 0 -1375299.244 -12626494.476 22166258.093 10 0 59535 54900.00000 0 1101367.449 -11391951.927 22836283.815 10 0 59535 55800.00000 0 3713015.900 -10320252.673 23064684.397 10 0 59535 56700.00000 0 6396920.068 -9441063.584 22846830.601 10 0 59535 57600.00000 0 9086056.973 -8772625.007 22186689.712 10 0 59535 58500.00000 0 11711650.878 -8321077.769 21096768.986 10 0 59535 59400.00000 0 14205804.055 -8080310.125 19597897.681 10 0 59535 60300.00000 0 16504106.919 -8032332.306 17718849.854 10 0 59535 61200.00000 0 18548120.210 -8148164.587 15495812.958 10 0 59535 62100.00000 0 20287626.382 -8389203.346 12971710.209 10 0 59535 63000.00000 0 21682555.965 -8709009.261 10195387.634 10 0 59535 63900.00000 0 22704507.269 -9055443.607 7220679.865 10 0 59535 64800.00000 0 23337794.287 -9373063.110 4105371.503 10 0 59535 65700.00000 0 23579977.030 -9605672.079 910073.634 10 0 59535 66600.00000 0 23441850.108 -9698922.928 -2302962.457 10 0 59535 67500.00000 0 22946888.589 -9602853.292 -5471070.520 10 0 59535 68400.00000 0 22130173.387 -9274249.902 -8532408.263 10 0 59535 69300.00000 0 21036841.141 -8678736.347 -11427183.890 10 0 59535 70200.00000 0 19720124.332 -7792493.318 -14098844.250 10 0 59535 71100.00000 0 18239065.294 -6603535.653 -16495199.329 10 0 59535 72000.00000 0 16656002.129 -5112489.696 -18569459.009 10 0 59535 72900.00000 0 15033934.393 -3332836.084 -20281160.291 10 0 59535 73800.00000 0 13433881.426 -1290606.336 -21596965.657 10 0 59535 74700.00000 0 11912346.340 976454.635 -22491316.264 10 0 59535 75600.00000 0 10518993.595 3420225.040 -22946927.149 10 0 59535 76500.00000 0 9294638.416 5983985.285 -22955115.160 10 0 59535 77400.00000 0 8269632.446 8604564.254 -22515954.046 10 0 59535 78300.00000 0 7462712.474 11214762.202 -21638254.881 10 0 59535 79200.00000 0 6880358.943 13745948.208 -20339373.618 10 0 59535 80100.00000 0 6516688.905 16130723.133 -18644851.084 10 0 59535 81000.00000 0 6353885.235 18305536.882 -16587893.992 10 0 59535 81900.00000 0 6363141.158 20213151.171 -14208708.579 10 0 59535 82800.00000 0 6506077.546 21804845.961 -11553701.238 10 0 59535 83700.00000 0 6736570.747 23042279.047 -8674562.865 10 0 59535 84600.00000 0 7002911.842 23898923.176 -5627255.619 10 0 59535 85500.00000 0 7250204.843 24361022.974 -2470922.500 10 0 59536 0.00000 0 7422901.818 24428034.267 733258.548 10 0 59536 900.00000 0 7467367.951 24112529.882 3923255.535 10 0 59536 1800.00000 0 7334368.526 23439578.090 7037371.492 10 0 59536 2700.00000 0 6981374.146 22445621.633 10015425.239 10 0 59536 3600.00000 0 6374587.884 21176905.241 12799897.840 10 0 59536 4500.00000 0 5490610.224 19687518.008 15337025.664 10 0 59536 5400.00000 0 4317672.647 18037132.234 17577820.309 10 0 59536 6300.00000 0 2856388.443 16288532.254 19478997.450 10 0 59536 7200.00000 0 1119989.104 14505035.028 21003798.331 10 0 59536 8100.00000 0 -865964.534 12747908.251 22122689.609 10 0 59536 9000.00000 0 -3064386.072 11073891.657 22813929.283 10 0 59536 9900.00000 0 -5427950.978 9532922.964 23063988.481 10 0 59536 10800.00000 0 -7900816.969 8166161.607 22867821.240 10 0 59536 11700.00000 0 -10420708.923 7004391.488 22228976.633 10 0 59536 12600.00000 0 -12921284.725 6066868.889 21159550.066 10 0 59536 13500.00000 0 -15334686.646 5360663.710 19679973.141 10 0 59536 14400.00000 0 -17594174.586 4880522.260 17818644.111 10 0 59536 15300.00000 0 -19636733.190 4609258.559 15611403.853 10 0 59536 16200.00000 0 -21405545.112 4518659.176 13100865.151 10 0 59536 17100.00000 0 -22852227.208 4570865.060 10335606.082 10 0 59536 18000.00000 0 -23938735.258 4720173.506 7369241.383 10 0 59536 18900.00000 0 -24638856.027 4915185.080 4259388.508 10 0 59536 19800.00000 0 -24939222.115 5101204.972 1066547.810 10 0 59536 20700.00000 0 -24839804.828 5222796.693 -2147081.211 10 0 59536 21600.00000 0 -24353862.409 5226378.602 -5318823.826 10 0 59536 22500.00000 0 -23507344.189 5062751.231 -8386768.953 10 0 59536 23400.00000 0 -22337774.817 4689445.772 -11290996.916 10 0 59536 24300.00000 0 -20892665.299 4072791.304 -13974770.090 10 0 59536 25200.00000 0 -19227518.310 3189610.334 -16385661.054 10 0 59536 26100.00000 0 -17403512.904 2028468.196 -18476594.169 10 0 59536 27000.00000 0 -15484967.727 590421.241 -20206778.593 10 0 59536 27900.00000 0 -13536691.194 -1110769.497 -21542513.317 10 0 59536 28800.00000 0 -11621331.840 -3048969.162 -22457847.773 10 0 59536 29700.00000 0 -9796841.539 -5186530.948 -22935084.982 10 0 59536 30600.00000 0 -8114158.922 -7475652.647 -22965117.819 10 0 59536 31500.00000 0 -6615210.381 -9860170.274 -22547592.617 10 0 59536 32400.00000 0 -5331311.827 -12277712.794 -21690898.113 10 0 59536 33300.00000 0 -4282036.746 -14662126.903 -20411981.348 10 0 59536 34200.00000 0 -3474595.940 -16946069.584 -18735995.660 10 0 59536 35100.00000 0 -2903752.232 -19063659.676 -16695789.197 10 0 59536 36000.00000 0 -2552270.664 -20953077.645 -14331245.410 10 0 59536 36900.00000 0 -2391882.168 -22559005.382 -11688489.781 10 0 59536 37800.00000 0 -2384717.160 -23834805.137 -8818979.390 10 0 59536 38700.00000 0 -2485146.081 -24744348.086 -5778493.928 10 0 59536 39600.00000 0 -2641947.289 -25263417.960 -2626048.498 10 0 59536 40500.00000 0 -2800709.481 -25380633.270 577250.410 10 0 59536 41400.00000 0 -2906366.620 -25097851.803 3769383.609 10 0 59536 42300.00000 0 -2905758.429 -24430042.593 6888610.040 10 0 59536 43200.00000 0 -2750108.996 -23404632.520 9874647.470 10 0 59536 44100.00000 0 -2397319.921 -22060356.168 12669821.358 10 0 59536 45000.00000 0 -1813982.566 -20445657.661 15220160.984 10 0 59536 45900.00000 0 -977025.743 -18616711.199 17476423.350 10 0 59536 46800.00000 0 125069.652 -16635142.167 19395026.821 10 0 59536 47700.00000 0 1491539.792 -14565542.524 20938878.152 10 0 59536 48600.00000 0 3109121.953 -12472882.170 22078078.527 10 0 59536 49500.00000 0 4952363.686 -10419921.970 22790496.214 10 0 59536 50400.00000 0 6984446.096 -8464733.996 23062195.567 10 0 59536 51300.00000 0 9158489.462 -6658430.201 22887714.330 10 0 59536 52200.00000 0 11419289.805 -5043192.411 22270183.519 10 0 59536 53100.00000 0 13705417.192 -3650684.709 21221286.592 10 0 59536 54000.00000 0 15951591.493 -2500913.868 19761057.133 10 0 59536 54900.00000 0 18091239.384 -1601585.606 17917516.975 10 0 59536 55800.00000 0 20059128.000 -947984.340 15726159.528 10 0 59536 56700.00000 0 21793966.718 -523382.581 13229285.963 10 0 59536 57600.00000 0 23240868.698 -299964.113 10475204.902 10 0 59536 58500.00000 0 24353568.676 -240223.413 7517309.342 10 0 59536 59400.00000 0 25096302.746 -298783.302 4413047.407 10 0 59536 60300.00000 0 25445269.337 -424554.516 1222806.213 10 0 59536 61200.00000 0 25389607.717 -563145.709 -1991269.300 10 0 59536 62100.00000 0 24931850.539 -659420.870 -5166498.886 10 0 59536 63000.00000 0 24087829.321 -660094.160 -8240905.707 10 0 59536 63900.00000 0 22886035.270 -516249.913 -11154445.219 10 0 59536 64800.00000 0 21366461.465 -185678.311 -13850198.190 10 0 59536 65700.00000 0 19578974.986 365075.063 -16275502.478 10 0 59536 66600.00000 0 17581288.108 1159035.329 -18382999.341 10 0 59536 67500.00000 0 15436615.035 2207573.285 -20131572.246 10 0 59536 68400.00000 0 13211114.169 3509682.978 -21487158.568 10 0 59536 69300.00000 0 10971225.000 5051793.600 -22423417.574 10 0 59536 70200.00000 0 8781012.841 6808124.288 -22922241.503 10 0 59536 71100.00000 0 6699633.719 8741566.961 -22974100.133 10 0 59536 72000.00000 0 4779026.187 10805059.539 -22578212.855 10 0 59536 72900.00000 0 3061926.356 12943391.113 -21742546.117 10 0 59536 73800.00000 0 1580288.096 15095362.388 -20483637.634 10 0 59536 74700.00000 0 354172.780 17196209.847 -18826252.384 10 0 59536 75600.00000 0 -608847.564 19180191.415 -16802878.633 10 0 59536 76500.00000 0 -1313751.674 20983224.980 -14453075.305 10 0 59536 77400.00000 0 -1777595.738 22545469.351 -11822684.842 10 0 59536 78300.00000 0 -2028528.520 23813740.232 -8962928.041 10 0 59536 79200.00000 0 -2104339.406 24743661.169 -5929399.372 10 0 59536 80100.00000 0 -2050603.032 25301460.882 -2780983.086 10 0 59536 81000.00000 0 -1918500.645 25465343.629 421288.583 10 0 59536 81900.00000 0 -1762411.286 25226377.165 3615412.968 10 0 59536 82800.00000 0 -1637374.861 24588863.122 6739607.732 10 0 59536 83700.00000 0 -1596533.926 23570176.011 9733492.587 10 0 59536 84600.00000 0 -1688661.347 22200078.902 12539240.209 10 0 59536 85500.00000 0 -1955876.923 20519545.149 15102675.390 99